Lapse_Rate
-0.3 0.2 2.0 5.6 6.5 6.5 6.5 6.5 6.5 6.5 6.5 7.3 7.4 7.0 6.6 7.0 6.5 6.5 4.1 3.8 4.2 4.2 3.4 3.7 3.1 3.4 3.7 3.6 3.8 3.4 3.6 3.7 3.7 4.0 4.2 4.3 4.7 4.8 5.1 5.4 5.3 5.4 5.7 5.5 5.4 5.5 5.6 5.3 4.9
0.7 2.2 4.5 5.7 6.5 6.5 6.5 6.5 6.5 6.5 7.0 7.5 6.9 7.3 6.9 6.5 6.9 5.6 4.8 3.5 3.6 3.7 3.5 3.2 2.6 3.0 3.3 3.6 3.1 2.9 3.2 3.1 3.5 3.6 3.8 3.6 3.9 4.5 5.1 5.7 6.0 6.2 6.0 6.1 6.1 6.2 6.0 5.4 5.0
1.8 2.9 6.9 6.5 6.5 6.5 6.5 6.5 6.5 6.9 7.4 7.3 7.0 7.2 7.4 6.9 7.0 5.2 3.9 3.4 3.4 3.5 4.2 3.6 3.3 3.6 3.7 3.6 2.7 2.2 2.6 2.4 2.8 3.2 3.7 3.7 3.6 3.6 3.8 4.2 4.4 4.4 4.8 5.3 5.6 5.5 5.4 5.1 4.8
4.3 5.7 6.2 6.5 6.5 6.5 6.5 6.5 6.7 6.7 7.2 6.9 7.3 6.6 7.4 7.3 6.9 4.9 3.9 3.7 3.8 2.8 3.9 4.0 3.9 3.3 2.9 2.8 2.3 2.0 2.4 1.9 2.3 2.5 2.7 2.8 3.0 3.1 3.1 3.3 3.6 3.7 3.9 4.0 3.9 3.8 3.9 4.2 4.5
3.0 5.2 6.5 6.5 6.5 6.5 6.5 6.9 7.0 6.5 6.8 7.1 7.3 6.7 7.2 6.2 5.5 4.5 4.1 3.5 2.7 1.4 2.1 3.7 3.9 3.4 2.9 2.7 2.5 2.2 2.0 1.7 2.1 2.1 2.3 2.6 2.7 2.7 2.7 2.7 2.8 2.8 3.0 3.0 2.8 2.7 2.6 2.7 3.2
6.5 6.6 6.5 6.5 6.5 6.5 6.5 7.1 7.0 6.8 7.0 7.2 7.0 7.1 7.4 6.4 5.7 4.6 3.9 2.9 2.0 0.8 1.0 2.7 3.4 3.1 2.3 2.4 1.8 1.5 1.1 0.8 0.9 0.9 1.4 1.4 1.5 1.7 1.7 2.1 2.0 2.1 1.9 1.8 1.8 1.7 1.8 2.0 2.2
6.6 6.5 6.5 6.5 6.5 6.5 6.5 7.0 6.7 6.7 6.8 6.9 7.6 6.5 7.6 7.6 6.0 4.8 3.6 1.9 0.9 0.7 1.3 1.5 1.7 1.8 2.0 1.7 0.8 0.4 -0.1 -0.0 -0.2 -0.2 -0.4 -0.6 -0.6 -0.0 0.2 0.3 0.3 0.1 0.2 0.3 0.4 0.9 1.2 1.3 1.4
5.1 6.5 6.5 6.5 6.5 6.5 6.7 7.0 7.2 7.0 6.8 6.5 6.2 6.6 6.9 8.2 6.1 4.9 4.0 2.6 1.0 0.2 0.9 1.4 1.3 0.6 0.4 0.6 0.2 -0.4 -0.9 -1.0 -0.8 -1.2 -1.9 -2.0 -1.4 -1.2 -1.0 -0.2 -0.8 -0.8 -1.0 -0.9 -0.8 -1.0 -0.9 -0.5 0.1
4.1 6.5 6.5 6.5 6.5 6.5 6.9 6.5 6.5 5.8 7.3 6.6 5.4 6.5 5.8 4.7 5.4 5.3 3.7 2.6 1.8 1.1 0.8 0.6 1.1 0.5 0.0 -0.1 -1.4 -1.4 -1.5 -1.8 -2.0 -2.3 -2.4 -1.7 -1.4 -1.2 -1.1 -1.9 -2.1 -1.7 -2.0 -2.0 -1.8 -1.8 -2.0 -1.8 -0.3
6.7 6.5 6.5 6.5 6.5 6.5 6.8 6.8 7.0 7.0 7.0 6.9 6.0 4.5 4.2 4.5 5.4 4.8 4.5 2.8 2.2 1.2 0.7 1.2 0.8 0.3 0.1 0.1 -0.8 -1.1 -1.6 -2.3 -2.7 -2.8 -2.6 -2.1 -2.6 -2.6 -2.4 -2.7 -2.9 -3.1 -3.0 -2.6 -2.7 -2.4 -1.9 -1.0 -0.1
6.8 6.5 6.5 6.7 6.9 6.3 6.7 6.8 6.2 6.8 6.5 7.1 6.9 4.8 5.5 5.5 6.1 5.9 5.7 4.3 2.5 1.5 1.8 1.5 0.7 0.4 1.0 0.4 -0.3 -1.0 -1.9 -2.4 -3.0 -3.5 -3.6 -3.5 -2.8 -2.8 -2.4 -2.1 -2.3 -2.4 -2.6 -2.0 -1.8 -1.4 -1.0 -1.2 -1.1
6.5 6.7 6.8 6.8 6.0 6.8 6.6 6.0 6.7 6.8 6.4 4.1 4.5 2.7 5.0 6.0 6.0 5.8 4.6 3.5 2.6 2.5 1.7 1.3 0.7 0.3 -0.2 0.0 -0.5 -1.1 -1.6 -2.4 -2.7 -3.4 -3.7 -3.1 -2.6 -2.6 -2.7 -2.6 -2.8 -2.7 -2.9 -2.8 -2.4 -1.9 -2.3 -2.1 -1.7
6.5 6.5 6.7 6.1 5.6 5.7 6.0 6.7 6.6 5.9 3.4 2.1 2.1 3.4 5.2 6.5 6.0 5.2 4.2 3.2 2.9 2.4 1.1 0.8 0.4 -0.2 -1.0 -1.3 -1.7 -2.0 -2.2 -2.6 -3.1 -3.0 -3.4 -3.1 -2.4 -2.3 -2.6 -2.7 -2.8 -3.1 -3.4 -3.1 -2.8 -2.5 -2.2 -2.0 -1.9
6.8 6.8 6.8 6.3 6.6 6.5 6.6 6.6 6.6 6.2 2.6 2.2 3.0 5.0 6.2 5.9 5.1 4.2 4.2 3.1 2.9 2.2 1.3 0.3 0.1 -0.7 -1.0 -1.2 -1.6 -1.7 -2.2 -2.4 -2.5 -2.7 -3.3 -3.4 -3.0 -3.0 -2.4 -2.2 -2.3 -2.5 -2.8 -3.0 -2.8 -2.7 -2.0 -1.5 -1.8
6.8 6.5 6.5 6.6 6.8 6.5 6.5 6.5 6.5 5.8 4.6 6.0 7.1 6.6 5.6 4.8 4.6 4.3 3.7 2.9 2.8 2.2 1.0 0.1 -0.4 -0.8 -0.7 -1.0 -1.2 -1.6 -1.8 -2.1 -2.0 -2.4 -3.2 -3.3 -3.3 -3.2 -2.9 -2.5 -2.5 -3.0 -3.1 -2.3 -1.3 -1.1 -1.0 0.1 0.2
6.5 6.5 6.5 6.5 6.6 6.5 6.6 6.5 6.5 5.8 7.0 7.2 7.3 7.0 5.7 5.3 4.8 4.1 3.5 3.4 2.9 2.3 1.4 0.9 0.5 -0.2 -0.6 -1.0 -1.0 -1.1 -1.8 -1.9 -2.0 -2.4 -2.6 -3.3 -3.5 -3.5 -2.7 -2.3 -2.6 -3.2 -2.2 -1.8 -1.1 -0.5 0.1 0.4 1.1
6.5 6.5 6.5 6.5 6.6 6.5 6.5 6.5 6.5 6.0 7.1 7.1 7.2 7.2 6.2 4.8 4.4 4.2 4.0 3.6 2.7 2.1 1.3 0.8 0.3 -0.0 -0.4 -1.2 -1.2 -1.5 -1.8 -1.6 -1.9 -1.8 -2.0 -2.9 -3.1 -3.3 -2.9 -2.8 -2.8 -2.8 -1.9 -1.5 -0.8 0.0 0.7 1.5 1.7
6.5 6.5 6.5 6.5 6.5 6.5 6.5 6.5 6.5 6.8 7.0 7.0 7.3 7.1 6.3 5.3 4.9 4.1 3.6 3.0 2.2 1.4 1.2 1.2 0.9 0.2 -0.1 -0.1 -0.1 -0.4 -0.7 -1.1 -1.4 -1.6 -2.2 -2.7 -2.8 -2.8 -2.5 -2.3 -2.7 -2.2 -1.2 -0.9 -1.1 -0.4 1.5 3.1 2.7
6.5 6.5 6.5 6.5 6.5 6.5 6.5 6.5 6.5 6.8 7.0 7.0 7.2 7.3 7.5 7.3 4.7 4.0 3.2 2.3 1.7 1.3 1.4 1.2 0.7 0.6 1.6 1.8 1.8 1.4 0.6 0.0 -0.4 -1.3 -2.0 -2.4 -2.7 -2.8 -2.3 -1.6 -1.8 -1.7 -1.0 -1.4 -0.9 -0.9 -0.2 3.5 3.8
6.5 6.5 6.5 6.5 6.5 6.5 6.5 6.5 6.5 6.5 6.7 7.1 7.2 7.3 7.4 5.3 4.7 4.1 3.8 3.3 2.7 1.9 1.6 1.4 1.5 1.4 1.5 2.0 1.8 1.6 0.7 -0.2 -0.8 -1.5 -1.7 -2.3 -2.6 -3.2 -2.5 -2.4 -1.9 -2.1 -1.0 -1.1 -0.8 -1.2 -0.5 2.6 4.7
6.5 6.5 6.5 6.5 6.5 6.5 6.5 6.5 6.5 6.5 6.9 7.2 7.4 7.5 7.3 6.4 5.7 5.3 4.6 3.5 2.8 2.6 1.9 1.8 1.6 1.4 1.4 1.3 1.1 0.6 0.2 0.1 0.1 -0.4 -0.7 -2.1 -2.8 -3.1 -3.1 -2.8 -2.1 -1.5 -0.8 -0.5 -0.4 -0.8 0.2 0.9 4.5
6.5 6.5 6.5 6.5 6.5 6.5 6.5 6.5 6.5 6.5 6.5 6.5 7.0 7.3 7.5 7.6 7.8 6.6 5.1 4.0 3.1 1.8 1.5 1.7 1.7 1.6 1.2 1.1 1.4 1.0 1.6 1.3 -0.5 -0.7 -0.9 -1.3 -2.4 -2.4 -2.9 -2.8 -2.3 -1.4 -1.0 -0.2 -0.0 -0.0 0.5 1.4 2.4
6.5 6.5 6.5 6.5 6.5 6.5 6.5 6.5 6.5 6.5 6.5 6.5 6.7 7.2 7.4 7.7 7.0 5.7 5.2 4.2 2.5 1.5 1.6 1.5 1.4 1.0 0.6 0.5 1.1 1.1 0.2 -0.1 -0.4 -0.5 -0.8 -1.0 -1.6 -2.0 -2.0 -1.8 -1.3 -0.8 -0.5 -0.2 0.4 0.4 0.8 1.3 1.8
6.5 6.5 6.5 6.5 6.5 6.5 6.5 6.5 6.5 6.5 6.5 6.5 6.7 7.2 7.3 7.5 7.1 6.1 5.3 3.7 2.8 2.4 2.3 1.6 1.3 0.6 0.6 0.6 0.1 0.1 0.2 0.2 0.3 0.2 0.6 0.1 0.2 -0.6 -1.3 -1.1 -1.1 -0.9 -0.5 -0.1 0.5 1.1 1.1 1.1 1.5
6.5 6.5 6.5 6.5 6.5 6.5 6.5 6.5 6.5 6.5 6.5 6.5 6.6 7.1 7.4 7.3 7.4 6.2 4.8 3.8 3.2 3.0 2.4 2.1 1.9 1.8 0.8 0.4 0.2 0.1 0.2 0.1 0.3 0.5 0.5 1.2 1.0 0.4 -0.2 -0.6 -0.3 -0.6 -0.7 -0.4 0.3 1.0 1.7 1.6 1.5
6.5 6.5 6.5 6.5 6.5 6.5 6.5 6.5 6.5 6.5 6.8 7.0 7.0 7.3 7.5 7.6 7.7 6.6 5.7 5.3 4.1 3.2 3.1 3.4 3.1 2.1 1.0 0.6 0.2 0.3 0.7 0.9 0.6 0.2 1.0 0.9 0.8 0.6 -0.2 -0.2 -0.3 -0.7 -0.6 0.0 0.4 0.8 1.3 1.4 1.7
6.5 6.5 6.5 6.5 6.5 6.5 6.5 6.5 6.5 6.5 6.5 6.7 6.9 7.2 7.2 7.5 7.8 7.6 5.7 4.2 4.0 3.7 3.5 3.3 2.9 1.9 1.6 1.1 1.3 1.3 1.2 0.9 0.6 0.8 1.3 1.1 1.0 0.8 0.3 -0.1 -0.2 -0.6 -0.2 0.1 0.7 1.0 1.2 1.9 2.6
6.5 6.5 6.5 6.5 6.5 6.5 6.5 6.5 6.5 6.5 6.5 6.5 6.4 5.8 7.2 6.4 6.8 6.3 4.8 4.2 4.0 3.6 3.5 3.3 2.9 1.9 2.0 1.7 1.6 1.4 1.2 1.3 1.5 1.7 1.4 1.3 0.9 0.7 0.9 0.7 0.2 0.3 0.2 0.5 1.0 1.2 1.3 2.0 2.7
6.5 6.5 6.5 6.5 6.5 6.5 6.5 6.5 6.5 6.5 6.5 6.5 6.5 5.5 2.3 6.2 2.6 4.4 4.3 3.4 2.8 0.9 3.2 2.8 1.7 0.0 0.5 1.6 1.6 2.1 2.2 2.0 1.7 1.5 1.0 0.9 0.8 1.1 1.4 1.1 0.7 0.5 0.7 0.3 0.8 0.6 0.7 1.4 1.7
6.5 6.5 6.5 6.5 6.5 6.5 6.5 6.5 6.5 6.5 6.5 6.8 6.8 6.5 4.7 2.9 3.0 0.7 1.3 1.5 0.4 2.7 2.6 2.3 2.1 1.8 0.4 0.7 2.3 2.3 1.1 1.0 1.3 0.5 0.4 0.1 1.0 1.4 1.3 1.2 1.0 0.3 0.2 -0.7 -0.2 0.2 -0.1 -0.1 0.7
Wind_Speed
3 1 3 2 2 1 2 2 2 3 3 1 1 3 8 5 3 2 5 5 8 8 8 9 10 9 9 12 14 17 15 15 15 14 12 11 8 7 6 6 4 3 2 2 2 1 1 0 1
1 3 2 2 1 2 2 2 3 2 4 8 6 5 4 4 3 7 5 4 9 11 12 10 12 12 13 14 20 18 15 17 16 15 14 14 14 14 12 8 5 2 0 2 3 4 4 0 2
3 2 1 3 2 3 2 2 3 9 3 3 4 6 3 5 7 4 6 8 11 12 13 13 14 15 17 17 19 21 18 20 18 18 17 17 18 18 17 16 15 14 12 10 8 6 6 5 5
0 2 3 1 3 4 3 1 2 8 2 3 5 6 3 3 4 7 10 11 11 12 15 14 17 18 19 18 19 20 18 21 20 19 18 18 17 17 17 16 16 17 17 15 14 13 13 10 8
3 1 2 0 3 4 3 4 5 8 4 5 3 5 4 3 12 13 11 10 11 10 15 16 17 17 20 18 19 20 20 22 20 20 19 18 18 17 17 17 16 16 16 16 17 17 16 15 14
2 1 1 2 3 4 4 2 3 6 2 6 6 8 5 10 11 10 10 10 10 10 13 14 18 18 21 19 20 20 22 23 21 21 19 19 19 19 18 17 17 16 15 16 16 16 17 17 16
3 2 2 3 2 3 2 2 3 4 2 1 7 5 5 10 10 11 11 11 12 14 14 13 12 15 20 20 20 20 22 21 21 20 19 20 21 20 19 19 18 18 17 15 15 16 16 15 14
3 2 3 3 1 1 1 3 5 2 3 3 1 4 6 14 14 13 12 11 11 10 11 12 12 14 15 17 19 20 21 20 20 20 21 18 17 17 17 17 18 16 18 18 17 15 17 17 14
2 2 2 3 4 2 2 1 2 2 6 1 1 1 4 22 17 15 12 11 9 8 8 11 11 12 13 13 15 17 18 18 18 18 18 15 13 13 13 14 15 17 17 15 18 19 16 17 12
1 2 6 3 2 1 4 3 4 5 5 4 2 8 18 21 18 16 14 10 10 8 8 7 10 11 11 12 12 12 13 15 17 16 15 13 12 13 12 13 14 13 16 15 16 16 16 13 12
1 3 3 2 3 1 2 2 1 4 6 8 7 15 17 19 15 13 12 11 10 10 8 8 9 9 9 9 8 9 10 11 13 15 13 12 10 11 10 10 12 14 17 13 15 14 12 14 12
2 2 2 1 2 2 3 2 3 5 2 1 6 19 19 20 16 15 13 11 12 10 9 8 9 10 10 9 10 10 11 11 11 13 14 12 9 9 10 9 10 11 13 14 13 11 13 13 14
3 0 4 6 11 4 1 8 5 5 1 5 15 18 18 16 14 12 13 12 11 11 9 9 10 9 10 11 11 12 11 11 11 12 13 12 10 8 9 9 10 11 11 11 11 12 13 12 13
2 3 8 5 4 3 4 2 3 2 4 9 14 15 15 15 14 13 13 12 10 10 9 8 9 10 12 11 12 10 10 10 11 11 12 12 11 11 10 10 10 11 13 12 10 10 9 8 12
3 5 5 1 2 3 4 2 3 3 6 9 9 13 14 14 15 15 13 12 11 9 9 9 9 10 11 11 11 11 10 10 10 10 13 14 14 12 11 9 9 12 12 13 12 11 10 7 9
2 1 2 1 5 2 3 2 0 3 10 9 10 11 12 12 13 12 12 11 9 10 9 9 8 10 11 10 10 9 10 10 10 11 12 15 15 16 11 10 11 14 12 12 10 9 9 8 8
3 3 2 3 2 3 2 3 0 5 9 9 11 11 11 10 10 10 10 9 9 9 9 10 9 9 9 11 10 11 11 11 11 11 12 14 15 15 12 11 12 13 11 11 9 9 10 10 9
2 2 2 5 1 3 6 9 6 4 8 11 12 12 13 13 11 11 10 9 9 9 9 9 7 9 9 9 8 9 9 10 11 12 13 14 13 14 14 12 13 12 9 8 9 11 10 9 10
2 3 8 9 9 4 6 4 8 2 5 8 11 11 11 13 10 11 10 10 10 8 9 8 8 7 5 4 4 4 5 5 6 11 13 14 14 14 14 12 12 13 9 10 12 9 12 8 12
4 8 10 9 8 5 6 8 11 5 3 9 14 13 14 13 14 13 12 9 6 8 7 7 7 5 3 4 4 3 3 5 6 8 11 13 13 15 14 14 11 13 8 10 12 12 9 7 10
9 9 8 9 4 2 5 9 4 2 3 4 6 10 13 17 18 15 12 9 8 8 7 7 7 6 6 6 6 5 5 4 3 5 5 11 13 14 13 14 12 11 10 8 10 11 12 8 8
5 10 12 8 4 6 3 7 5 3 5 2 2 10 12 13 13 13 11 11 9 8 7 7 7 7 6 3 3 4 4 3 3 4 5 8 13 13 14 13 12 11 10 9 9 8 9 9 9
3 2 3 2 2 2 2 5 2 2 7 5 3 6 10 13 16 16 14 12 10 9 8 7 8 8 7 5 4 4 7 5 3 4 6 7 10 12 14 13 12 11 10 10 9 9 10 8 8
4 3 5 3 2 6 10 8 2 4 3 1 3 8 12 14 15 15 13 12 11 9 8 8 9 9 6 6 6 7 8 5 4 5 5 5 5 8 13 12 12 12 11 10 9 9 10 9 8
1 2 3 2 3 5 2 5 9 4 3 4 6 11 13 15 17 17 17 15 13 11 9 7 7 7 7 7 7 8 8 8 7 5 5 5 5 6 8 11 11 10 12 12 10 9 9 10 9
6 7 4 5 4 7 2 6 3 2 3 3 3 8 11 14 16 17 15 13 13 12 10 8 8 8 8 8 8 7 7 5 5 7 5 5 6 6 10 10 10 12 13 12 11 9 7 9 9
3 4 2 5 1 4 4 6 3 3 6 4 5 8 11 14 16 16 14 14 14 13 12 11 11 10 9 9 7 7 6 7 7 7 6 6 8 8 11 11 12 13 12 12 11 8 9 9 9
4 4 2 1 4 6 5 9 8 5 8 9 8 11 14 14 15 15 15 14 13 13 11 11 10 11 10 10 8 7 7 7 6 6 8 9 9 11 11 11 12 12 12 12 12 9 10 11 10
2 2 2 2 3 6 8 7 4 5 6 7 11 12 9 14 10 12 13 13 12 9 12 11 10 9 9 9 9 8 7 7 7 7 8 8 11 11 9 10 10 10 10 12 10 11 11 12 12
2 3 5 3 6 3 3 14 2 4 7 6 10 7 8 9 10 9 11 12 11 13 12 12 10 10 8 7 9 8 7 6 8 8 8 9 7 9 10 10 10 10 11 12 10 11 11 12 13
Wind_Direction
331 76 139 79 223 322 244 221 302 243 201 357 84 199 162 59 142 162 108 81 104 92 82 73 61 69 85 88 75 68 72 73 77 80 93 101 105 110 117 120 117 103 80 109 137 245 268 83 33
144 140 78 94 177 218 188 263 280 265 133 124 79 90 68 94 74 118 122 98 87 84 76 71 69 70 70 76 82 77 75 72 62 59 54 55 58 57 47 48 42 27 262 252 266 265 271 265 302
147 31 149 94 112 230 216 208 136 132 136 169 111 44 87 117 120 114 112 116 95 85 86 85 84 85 82 81 81 85 84 83 77 76 73 67 61 56 50 43 41 35 27 14 3 343 342 341 315
180 76 79 175 236 242 230 207 204 155 143 82 124 94 101 21 136 136 131 123 103 85 79 73 86 90 90 81 79 80 80 81 82 81 78 76 75 69 62 53 43 37 34 29 24 14 4 342 319
36 81 111 139 254 267 232 274 210 191 146 131 152 136 91 42 106 116 120 108 102 90 80 75 77 83 87 81 78 75 73 71 68 68 68 67 67 67 63 58 52 42 37 30 26 19 17 13 2
76 61 155 231 243 264 296 289 183 192 147 149 125 132 118 131 123 120 111 96 88 87 78 77 87 85 83 78 74 75 70 68 65 65 64 64 60 55 51 48 48 45 39 27 21 18 11 9 11
142 146 209 203 267 299 330 340 126 139 130 199 127 111 115 154 130 116 99 86 74 74 80 78 80 78 78 76 74 72 70 69 69 67 64 60 55 48 43 41 35 30 23 23 19 8 5 2 2
112 108 165 224 200 233 276 109 119 138 144 114 6 169 166 168 137 117 101 85 75 70 76 79 74 75 72 69 72 72 70 68 66 62 56 55 53 47 42 32 25 28 15 10 6 7 357 351 346
153 119 219 210 171 262 8 152 82 109 127 93 54 206 138 142 136 126 116 101 84 64 58 72 78 78 75 77 74 74 73 67 58 54 49 49 45 38 37 36 26 16 14 11 2 356 356 345 337
149 173 213 204 198 287 321 344 140 161 155 211 163 95 137 145 151 146 143 124 111 94 78 81 87 90 92 89 87 81 71 63 56 49 43 41 39 35 25 21 14 19 9 360 359 353 347 351 341
130 218 196 184 166 257 268 286 148 150 207 195 198 159 157 155 156 148 134 129 120 109 91 84 87 86 89 89 86 78 69 61 56 49 45 39 32 24 22 11 7 1 359 1 352 349 353 341 335
299 258 251 324 140 326 252 153 263 203 176 318 171 162 159 162 160 151 137 131 123 109 100 93 93 96 91 93 79 71 64 59 53 42 36 32 28 22 19 16 11 7 358 353 351 344 338 334 329
198 302 298 296 303 287 271 247 239 242 298 115 137 155 162 160 148 135 131 126 124 115 113 107 105 99 91 81 73 67 60 55 50 44 37 34 30 24 19 17 13 8 0 357 350 345 337 332 326
295 281 280 270 267 270 260 246 175 5 123 134 150 157 158 156 143 132 138 130 122 118 103 96 88 87 88 83 79 74 65 59 53 48 39 37 33 24 20 16 14 9 360 356 351 349 340 331 326
302 299 308 187 333 193 191 240 213 274 146 138 152 153 149 147 150 151 148 138 134 117 113 99 92 88 84 81 75 69 67 65 60 53 42 38 35 28 25 21 17 9 3 354 351 350 342 332 326
317 12 313 40 351 18 202 235 306 157 157 154 157 156 149 150 152 148 142 132 126 121 105 92 92 89 84 85 84 81 74 72 64 54 46 39 36 29 32 27 18 4 3 3 360 353 344 341 336
32 283 280 311 356 332 0 280 99 146 164 165 169 163 155 144 145 141 140 128 117 109 110 105 104 103 102 97 92 85 77 69 61 53 43 35 34 30 33 28 17 10 10 12 358 353 346 340 342
291 271 250 268 236 337 302 276 278 168 188 188 180 174 168 162 153 142 133 123 119 116 113 111 111 113 107 103 96 87 76 67 59 51 43 36 32 27 27 27 21 18 16 11 3 353 351 341 342
287 268 285 280 270 271 255 262 277 283 208 200 196 185 174 161 154 147 140 134 127 120 119 124 129 129 127 110 101 84 74 64 57 48 38 36 30 26 27 21 20 19 22 15 6 359 354 354 354
261 283 274 280 286 230 265 254 257 271 208 216 197 187 176 165 167 161 154 147 135 125 115 109 110 123 121 128 118 105 103 79 72 58 46 36 32 31 30 21 16 18 15 18 14 10 357 352 2
259 255 260 271 305 251 296 271 228 129 111 37 217 208 192 182 173 165 158 146 137 129 122 115 108 105 100 111 123 117 119 106 64 44 39 31 32 31 30 30 18 17 18 16 17 12 9 354 358
259 230 236 251 220 268 338 292 267 213 191 73 157 185 187 182 171 163 156 159 153 136 120 111 103 97 82 72 89 95 78 80 60 51 46 42 34 28 29 31 26 23 18 20 17 17 12 5 360
242 86 168 176 222 308 233 266 259 267 230 169 168 182 186 182 176 169 171 165 155 145 140 130 115 94 81 77 95 96 93 94 94 80 68 51 40 36 31 27 27 25 25 19 20 25 25 22 6
144 91 54 62 110 257 246 237 263 207 210 127 178 189 186 181 179 174 174 162 159 156 150 139 128 105 104 99 86 98 108 118 98 75 63 55 40 39 34 29 30 29 24 20 17 22 30 29 18
200 298 292 255 206 263 153 202 258 201 217 243 243 200 190 185 181 178 179 176 166 162 152 141 122 130 118 111 101 96 102 101 96 91 69 62 49 40 34 32 30 32 27 27 21 27 29 26 20
195 201 204 248 253 284 174 240 234 141 261 284 253 196 185 189 189 188 186 173 164 169 162 148 153 142 127 115 99 100 102 101 92 78 85 73 60 48 44 43 39 37 33 28 28 31 28 24 22
155 191 198 251 254 263 248 281 249 264 261 230 202 186 194 193 193 190 178 174 173 172 171 164 166 143 140 125 120 109 104 97 94 94 86 75 66 58 51 46 44 41 37 33 34 35 29 29 25
210 136 171 167 259 263 266 276 246 255 254 218 219 208 203 194 188 185 181 178 178 172 167 170 162 151 150 141 128 108 102 98 101 95 85 77 69 59 53 50 49 47 44 41 41 40 36 38 30
187 197 111 175 206 255 282 263 214 260 297 240 237 214 200 196 178 183 182 180 173 153 166 166 159 156 154 147 129 122 112 107 101 91 83 76 68 60 58 57 56 52 49 45 51 49 40 43 38
268 229 182 214 248 220 256 269 145 273 289 259 272 240 205 201 187 172 172 170 159 170 169 169 165 162 152 140 144 136 118 102 95 88 79 77 77 74 69 69 67 61 55 50 46 50 43 40 36